Regional Weather Roundup
Issued by NWS

Home | Current Version | Previous Version | Graphics & Text | Print | Product List | Glossary On
Versions: 1 2 3 4 5 6 7 8 9 10 11 12 13 14 15 16 17 18 19 20 21 22 23 24 25 26 27 28 29 30 31 32 33 34 35 36 37 38 39 40 41 42 43 44 45 46 47 48 49 50
000
ASUS43 KLMK 222102
RWRKY
KENTUCKY REGIONAL WEATHER ROUNDUP
NATIONAL WEATHER SERVICE LOUISVILLE KY
500 PM EDT MON SEP 22 2014

NOTE "FAIR" INDICATES FEW OR NO CLOUDS BELOW 12,000 FEET
WITH NO SIGNIFICANT WEATHER AND/OR OBSTRUCTIONS TO VISIBILITY.

KYZ001>023-026-027-061>063-070>075-222200-
WESTERN AND SOUTH CENTRAL KENTUCKY

CITY           SKY/WX    TMP DP  RH WIND       PRES   REMARKS
PADUCAH        SUNNY     76  46  34 N10       30.20S
HENDERSON      SUNNY     70  45  40 NW7       30.21F
OWENSBORO      SUNNY     70  46  42 VRB7      30.21F
HOPKINSVILLE   SUNNY     73  44  35 N10G18    30.19S
BOWLING GREEN  SUNNY    N/A N/A N/A NE6G17    30.19F
GLASGOW        SUNNY     72  42  34 N7        30.19S
$$

KYZ024-025-028>034-038-045-046-053-222200-
NORTH CENTRAL KENTUCKY

CITY           SKY/WX    TMP DP  RH WIND       PRES   REMARKS
LOUISVILLE/SDF SUNNY     69  43  38 N10       30.21S
LOUISVILLE/LOU SUNNY     68  45  43 N8        30.22S
FORT KNOX      SUNNY     67  46  47 NW10      30.20F
$$

KYZ035>037-039>044-047>052-055>060-089>105-222200-
NORTHEAST KENTUCKY

CITY           SKY/WX    TMP DP  RH WIND       PRES   REMARKS
LEXINGTON      SUNNY     68  45  43 N6        30.21R
COVINGTON      MOSUNNY   65  40  39 N8        30.21S
FRANKFORT      SUNNY     67  43  41 VRB7      30.20S
$$

KYZ054-064>069-076>088-106>120-222200-
SOUTHEAST KENTUCKY

CITY           SKY/WX    TMP DP  RH WIND       PRES   REMARKS
JACKSON        SUNNY     62  47  57 CALM      30.19S
LONDON         SUNNY     69  46  43 VRB7      30.19F
SOMERSET       SUNNY     68  43  40 NE9G21    30.20S
MIDDLESBORO    SUNNY     68  49  50 N9        30.17S
MONTICELLO     CLEAR     72  45  37 VRB6      30.20S
$$




USA.gov is the U.S. government's official web portal to all federal, state and local government web resources and services.